Location: Poughquag
(41.6090°N, 73.6820°W)
Time: 03:13:51
(UTC-04:00)

Transit 2A Rocket - Pass Details

Date: 02 June 2020
Orbit: 584 x 919 km, 66.7° (Epoch: 06 July)

Event Time Altitude Azimuth Distance (km) Brightness Sun altitude
Rises 05:23:30 0° 339° (NNW) 3,480 8.5 -0.6°
Reaches altitude 10° 05:27:15 10° 3° (N) 2,582 8.2 0.0°
Maximum altitude 05:30:33 15° 36° (NE) 2,273 8.8 0.5°
Drops below altitude 10° 05:33:52 10° 69° (ENE) 2,615 9.9 1.0°
Sets 05:37:41 0° 92° (E) 3,551 9.6 1.7°
